Weather History for Williamsport, PA

Change the Weather History Date:

Wednesday, August 6, 2014

  Actual Average Record
Temperature  
Mean Temperature 72 °F 72 °F  
Max Temperature 81 °F 83 °F 102 °F (2001)
Min Temperature 62 °F 62 °F 45 °F (1957)
Degree Days  
Heating Degree Days 0 0  
Month to date heating degree days 0 0  
Since 1 June heating degree days 8 41  
Since 1 July heating degree days 0 4  
Cooling Degree Days 7 7  
Month to date cooling degree days 48 47  
Year to date cooling degree days 507 480  
Since 1 June cooling degree days 455 437  
Growing Degree Days 22 (Base 50)    
Moisture  
Dew Point 60 °F    
Average Humidity 68    
Maximum Humidity 93    
Minimum Humidity 42    
Precipitation  
Precipitation T in 0.13 in 1.97 in (2011)
Month to date precipitation 0.69 0.81  
Year to date precipitation 22.92 23.98  
Sea Level Pressure  
Sea Level Pressure 29.95 in    
Wind  
Wind Speed 5 mph (WNW)    
Max Wind Speed 13 mph    
Max Gust Speed 16 mph    
Visibility 10 miles    
Events      
T = Trace of Precipitation, MM = Missing Value Source: NWS Daily Summary

Daily Weather History Graph

Daily Weather History Graph

Search for Another Location

Airport:

Trip Planner

Search our weather history database for the weather conditions in past years. The results will help you decide how hot, cold, wet, or windy it might be!

Date:

Astronomy

Aug. 06, 2014 Rise Set
Actual Time 6:07 AM EDT 8:18 PM EDT
Civil Twilight 5:37 AM EDT 8:48 PM EDT
Nautical Twilight 4:59 AM EDT 9:26 PM EDT
Astronomical Twilight 4:18 AM EDT 10:07 PM EDT
Moon 4:34 PM EDT (8/6) 1:41 AM EDT (8/6)
Length of Visible Light 15h 11m
Length of Day
14h 10m
Waxing Gibbous, 77% of the Moon is Illuminated
Aug 6
Waxing Gibbous
Aug 10
Full
Aug 17
Last Quarter
Aug 25
New
Sep 2
First Quarter

Hourly Weather History & Observations

Time (EDT) Temp. Heat Index Dew Point Humidity Pressure Visibility Wind Dir Wind Speed Gust Speed Precip Events Conditions
12:54 AM 64.9 °F - 62.1 °F 90% 29.96 in 8.0 mi West 5.8 mph - N/A   Overcast
1:54 AM 64.9 °F - 62.1 °F 90% 29.96 in 9.0 mi WNW 3.5 mph - N/A   Overcast
2:54 AM 64.0 °F - 61.0 °F 90% 29.96 in 10.0 mi WNW 6.9 mph - N/A   Overcast
3:17 AM 64.0 °F - 61.0 °F 90% 29.97 in 10.0 mi West 8.1 mph - N/A   Mostly Cloudy
3:52 AM 62.6 °F - 60.8 °F 94% 29.96 in 10.0 mi WNW 6.9 mph - N/A   Mostly Cloudy
3:54 AM 63.0 °F - 60.1 °F 90% 29.96 in 10.0 mi WNW 6.9 mph - N/A   Mostly Cloudy
4:06 AM 63.0 °F - 60.1 °F 90% 29.97 in 10.0 mi WNW 6.9 mph - N/A   Scattered Clouds
4:21 AM 64.0 °F - 60.1 °F 87% 29.97 in 10.0 mi West 5.8 mph - N/A   Mostly Cloudy
4:54 AM 64.0 °F - 61.0 °F 90% 29.96 in 10.0 mi WSW 6.9 mph - N/A   Overcast
5:54 AM 64.0 °F - 61.0 °F 90% 29.95 in 10.0 mi WSW 8.1 mph - N/A   Overcast
6:54 AM 64.0 °F - 61.0 °F 90% 29.96 in 10.0 mi West 4.6 mph - N/A   Mostly Cloudy
7:09 AM 64.9 °F - 61.0 °F 87% 29.97 in 10.0 mi North - - N/A   Overcast
7:54 AM 64.9 °F - 61.0 °F 87% 29.97 in 10.0 mi West 5.8 mph - N/A   Overcast
8:15 AM 66.0 °F - 60.1 °F 81% 29.98 in 10.0 mi West 6.9 mph - N/A   Overcast
8:54 AM 66.9 °F - 61.0 °F 81% 29.97 in 10.0 mi WSW 5.8 mph - N/A   Scattered Clouds
9:54 AM 70.0 °F - 57.9 °F 65% 29.96 in 10.0 mi NNW 5.8 mph - N/A   Mostly Cloudy
10:01 AM 70.0 °F - 57.0 °F 63% 29.97 in 10.0 mi Variable 5.8 mph - N/A   Overcast
10:36 AM 71.1 °F - 57.0 °F 61% 29.97 in 10.0 mi NNW 4.6 mph - N/A   Scattered Clouds
10:54 AM 73.0 °F - 57.0 °F 57% 29.96 in 10.0 mi Calm Calm - N/A   Scattered Clouds
11:54 AM 73.0 °F - 57.9 °F 59% 29.96 in 10.0 mi WSW 5.8 mph - N/A   Mostly Cloudy
12:54 PM 77.0 °F - 60.1 °F 56% 29.95 in 10.0 mi WNW 8.1 mph - N/A   Mostly Cloudy
1:54 PM 78.1 °F - 59.0 °F 52% 29.93 in 10.0 mi WSW 9.2 mph - N/A   Mostly Cloudy
2:54 PM 79.0 °F - 57.9 °F 48% 29.91 in 10.0 mi Variable 3.5 mph - N/A   Mostly Cloudy
3:54 PM 78.1 °F - 57.9 °F 50% 29.89 in 10.0 mi NNE 8.1 mph - N/A   Mostly Cloudy
4:54 PM 78.1 °F - 61.0 °F 56% 29.89 in 10.0 mi SW 3.5 mph - 0.00 in   Mostly Cloudy
5:54 PM 80.1 °F 80.1 °F 55.0 °F 42% 29.90 in 10.0 mi West 4.6 mph - N/A   Mostly Cloudy
6:54 PM 78.1 °F - 57.0 °F 48% 29.90 in 10.0 mi West 4.6 mph - N/A   Scattered Clouds
7:54 PM 75.0 °F - 57.0 °F 53% 29.91 in 10.0 mi Calm Calm - N/A   Clear
8:54 PM 70.0 °F - 62.1 °F 76% 29.94 in 10.0 mi Calm Calm - N/A   Overcast
9:54 PM 69.1 °F - 60.1 °F 73% 29.95 in 10.0 mi Calm Calm - N/A   Overcast
10:54 PM 69.1 °F - 59.0 °F 70% 29.95 in 10.0 mi North 4.6 mph - N/A   Scattered Clouds
11:54 PM 64.9 °F - 59.0 °F 81% 29.96 in 10.0 mi NNW 3.5 mph - N/A   Clear